| time (UTC) | temp C | wind direction | speed KPH | gust KPH | rain 1hr cm | rain 24hr cm | rain mn cm | humidity % | barometer mb |
| 20260506004628 | 11 | 24 | 11.3 | 20.9 | 0.00 | 0.00 | 0.00 | 1 | 1011.2 |
| 20260506003607 | 11 | 26 | 11.3 | 20.9 | 0.00 | 0.00 | 0.00 | 1 | 1011.3 |
| 20260506002611 | 11 | 33 | 11.3 | 20.9 | 0.00 | 0.00 | 0.00 | 1 | 1011.3 |
| 20260506001627 | 11 | 19 | 11.3 | 20.9 | 0.00 | 0.00 | 0.00 | 1 | 1011.3 |
| 20260506000603 | 11 | 40 | 9.7 | 22.5 | 0.00 | 0.00 | 0.00 | 1 | 1011.4 |
| 20260505235609 | 11 | 55 | 12.9 | 29.0 | 0.00 | 0.00 | 0.00 | 1 | 1011.4 |
| 20260505234600 | 11 | 41 | 12.9 | 29.0 | 0.00 | 0.00 | 0.00 | 1 | 1011.4 |
| 20260505233619 | 11 | 65 | 12.9 | 27.4 | 0.00 | 0.00 | 0.00 | 1 | 1011.4 |
| 20260505232635 | 11 | 14 | 11.3 | 22.5 | 0.00 | 0.00 | 0.00 | 1 | 1011.4 |
| 20260505231639 | 11 | 5 | 11.3 | 27.4 | 0.00 | 0.00 | 0.00 | 1 | 1011.3 |
| 20260505230616 | 11 | 24 | 12.9 | 27.4 | 0.00 | 0.00 | 0.00 | 1 | 1011.3 |
| 20260505225541 | 11 | 75 | 12.9 | 24.1 | 0.00 | 0.00 | 0.00 | 1 | 1011.4 |
| 20260505223350 | 11 | 36 | 12.9 | 25.7 | 0.00 | 0.00 | 0.00 | 1 | 1011.5 |
| 20260505222346 | 11 | 72 | 14.5 | 27.4 | 0.00 | 0.00 | 0.00 | 1 | 1011.5 |
| 20260505221410 | 11 | 36 | 11.3 | 27.4 | 0.00 | 0.00 | 0.00 | 1 | 1011.5 |
| 20260505220343 | 11 | 59 | 11.3 | 24.1 | 0.00 | 0.00 | 0.00 | 1 | 1011.5 |
| 20260505214226 | 11 | 28 | 11.3 | 25.7 | 0.00 | 0.00 | 0.00 | 1 | 1011.4 |
| 20260505213234 | 11 | 57 | 8.0 | 22.5 | 0.00 | 0.00 | 0.00 | 1 | 1011.5 |
| 20260505212201 | 11 | 71 | 9.7 | 24.1 | 0.00 | 0.00 | 0.00 | 1 | 1011.5 |
| 20260505211149 | 11 | 34 | 9.7 | 24.1 | 0.00 | 0.00 | 0.00 | 1 | 1011.5 |
| 20260505204953 | 11 | 71 | 6.4 | 17.7 | 0.00 | 0.00 | 0.00 | 1 | 1011.4 |
| 20260505204000 | 11 | 56 | 6.4 | 16.1 | 0.00 | 0.00 | 0.00 | 1 | 1011.4 |
| 20260505202950 | 11 | 58 | 8.0 | 20.9 | 0.00 | 0.00 | 0.00 | 1 | 1011.4 |
| 20260505201914 | 11 | 60 | 9.7 | 20.9 | 0.00 | 0.00 | 0.00 | 1 | 1011.3 |
| 20260505200904 | 11 | 57 | 8.0 | 20.9 | 0.00 | 0.00 | 0.00 | 1 | 1011.2 |
| 20260505195900 | 11 | 70 | 8.0 | 20.9 | 0.00 | 0.00 | 0.00 | 1 | 1011.1 |
| 20260505194837 | 11 | 34 | 6.4 | 16.1 | 0.00 | 0.00 | 0.00 | 1 | 1010.9 |
| 20260505193810 | 11 | 69 | 6.4 | 16.1 | 0.00 | 0.00 | 0.00 | 1 | 1010.9 |
| 20260505192758 | 12 | 58 | 6.4 | 14.5 | 0.00 | 0.00 | 0.00 | 1 | 1010.8 |
| 20260505191801 | 12 | 54 | 6.4 | 16.1 | 0.00 | 0.00 | 0.00 | 1 | 1010.7 |
| 20260505190742 | 12 | 67 | 6.4 | 19.3 | 0.00 | 0.00 | 0.00 | 1 | 1010.7 |
| 20260505185745 | 12 | 52 | 6.4 | 19.3 | 0.00 | 0.00 | 0.00 | 1 | 1010.6 |
| 20260505184724 | 12 | 42 | 8.0 | 19.3 | 0.00 | 0.00 | 0.00 | 1 | 1010.5 |
| 20260505183700 | 12 | 45 | 8.0 | 19.3 | 0.00 | 0.00 | 0.00 | 1 | 1010.5 |
| 20260505182723 | 13 | 22 | 6.4 | 19.3 | 0.00 | 0.00 | 0.00 | 3 | 1010.5 |
| 20260505181707 | 13 | 62 | 6.4 | 16.1 | 0.00 | 0.00 | 0.00 | 6 | 1010.5 |
| 20260505180714 | 13 | 79 | 6.4 | 17.7 | 0.00 | 0.00 | 0.00 | 5 | 1010.5 |
| 20260505175643 | 13 | 54 | 6.4 | 17.7 | 0.00 | 0.00 | 0.00 | 5 | 1010.5 |
| 20260505173438 | 13 | 82 | 6.4 | 16.1 | 0.00 | 0.00 | 0.00 | 1 | 1010.5 |
| 20260505172412 | 13 | 53 | 6.4 | 17.7 | 0.00 | 0.00 | 0.00 | 5 | 1010.4 |
| 20260505170230 | 13 | 32 | 6.4 | 17.7 | 0.00 | 0.00 | 0.00 | 14 | 1010.5 |
| 20260505165244 | 13 | 46 | 8.0 | 17.7 | 0.00 | 0.00 | 0.00 | 19 | 1010.5 |
| 20260505164212 | 13 | 64 | 8.0 | 16.1 | 0.00 | 0.00 | 0.00 | 14 | 1010.6 |
| 20260505163157 | 13 | 35 | 6.4 | 20.9 | 0.00 | 0.00 | 0.00 | 12 | 1010.5 |
| 20260505162204 | 13 | 78 | 9.7 | 20.9 | 0.00 | 0.00 | 0.00 | 17 | 1010.4 |
| 20260505161132 | 13 | 78 | 8.0 | 20.9 | 0.00 | 0.00 | 0.00 | 13 | 1010.5 |
| 20260505152709 | 13 | 71 | 8.0 | 19.3 | 0.00 | 0.00 | 0.00 | 1 | 1010.8 |
| 20260505151714 | 13 | 44 | 8.0 | 19.3 | 0.00 | 0.00 | 0.00 | 1 | 1010.8 |
| 20260505150642 | 13 | 51 | 8.0 | 19.3 | 0.00 | 0.00 | 0.00 | 1 | 1010.9 |
| 20260505140621 | 13 | 83 | 9.7 | 22.5 | 0.00 | 0.00 | 0.00 | 1 | 1011.3 |
| 20260505130309 | 13 | 23 | 9.7 | 20.9 | 0.00 | 0.00 | 0.00 | 1 | 1011.3 |
| 20260505124217 | 13 | 78 | 8.0 | 19.3 | 0.00 | 0.00 | 0.00 | 1 | 1011.3 |
| 20260505123230 | 13 | 58 | 9.7 | 19.3 | 0.00 | 0.00 | 0.00 | 1 | 1011.4 |
| 20260505121041 | 13 | 76 | 9.7 | 19.3 | 0.00 | 0.00 | 0.00 | 1 | 1011.3 |
| 20260505120041 | 13 | 71 | 11.3 | 22.5 | 0.00 | 0.00 | 0.00 | 1 | 1011.4 |
| 20260505115105 | 14 | 79 | 9.7 | 22.5 | 0.00 | 0.00 | 0.00 | 1 | 1011.5 |
| 20260505114115 | 13 | 34 | 8.0 | 20.9 | 0.00 | 0.00 | 0.00 | 1 | 1011.5 |
| 20260505113123 | 13 | 74 | 9.7 | 20.9 | 0.00 | 0.00 | 0.00 | 1 | 1011.6 |
| 20260505112101 | 13 | 68 | 9.7 | 19.3 | 0.00 | 0.00 | 0.00 | 1 | 1011.5 |
| 20260505111105 | 13 | 30 | 9.7 | 22.5 | 0.00 | 0.00 | 0.00 | 1 | 1011.6 |
| 20260505110116 | 13 | 50 | 9.7 | 22.5 | 0.00 | 0.00 | 0.00 | 1 | 1011.6 |
| 20260505101930 | 12 | 28 | 9.7 | 17.7 | 0.00 | 0.00 | 0.00 | 1 | 1011.9 |
| 20260505100937 | 13 | 51 | 9.7 | 17.7 | 0.00 | 0.00 | 0.00 | 1 | 1011.9 |
| 20260505100544 | 13 | 27 | 9.7 | 19.3 | 0.00 | 0.00 | 0.00 | 1 | 1012.0 |
| 20260505095542 | 13 | 15 | 9.7 | 19.3 | 0.00 | 0.00 | 0.00 | 1 | 1012.0 |
| 20260505094549 | 13 | 33 | 8.0 | 19.3 | 0.00 | 0.00 | 0.00 | 1 | 1012.0 |
| 20260505092443 | 13 | 55 | 8.0 | 19.3 | 0.00 | 0.00 | 0.00 | 1 | 1012.1 |
| 20260505091455 | 13 | 40 | 9.7 | 19.3 | 0.00 | 0.00 | 0.00 | 1 | 1012.0 |
| 20260505090511 | 12 | 38 | 9.7 | 17.7 | 0.00 | 0.00 | 0.00 | 1 | 1012.0 |
| 20260505085535 | 12 | 56 | 8.0 | 19.3 | 0.00 | 0.00 | 0.00 | 1 | 1012.0 |
| 20260505084525 | 12 | 48 | 8.0 | 19.3 | 0.00 | 0.00 | 0.00 | 1 | 1012.1 |
| 20260505083456 | 12 | 35 | 9.7 | 16.1 | 0.00 | 0.00 | 0.00 | 1 | 1012.1 |
| 20260505082444 | 12 | 23 | 8.0 | 17.7 | 0.00 | 0.00 | 0.00 | 1 | 1011.9 |
| 20260505081416 | 12 | 11 | 9.7 | 20.9 | 0.00 | 0.00 | 0.00 | 1 | 1011.9 |
| 20260505080438 | 12 | 71 | 11.3 | 20.9 | 0.00 | 0.00 | 0.00 | 1 | 1011.9 |
| 20260505075402 | 12 | 44 | 8.0 | 19.3 | 0.00 | 0.00 | 0.00 | 1 | 1011.9 |
| 20260505074346 | 12 | 34 | 6.4 | 17.7 | 0.00 | 0.00 | 0.00 | 1 | 1011.9 |
| 20260505073402 | 11 | 53 | 8.0 | 17.7 | 0.00 | 0.00 | 0.00 | 1 | 1012.0 |
| 20260505072343 | 11 | 44 | 8.0 | 17.7 | 0.00 | 0.00 | 0.00 | 1 | 1012.0 |
| 20260505071358 | 11 | 63 | 6.4 | 16.1 | 0.00 | 0.00 | 0.00 | 1 | 1012.1 |
| 20260505070355 | 11 | 53 | 9.7 | 17.7 | 0.00 | 0.00 | 0.00 | 1 | 1012.0 |
| 20260505064303 | 11 | 38 | 9.7 | 19.3 | 0.00 | 0.00 | 0.00 | 1 | 1011.9 |
| 20260505063322 | 11 | 49 | 9.7 | 19.3 | 0.00 | 0.00 | 0.00 | 1 | 1011.8 |
| 20260505062309 | 11 | 66 | 8.0 | 16.1 | 0.00 | 0.00 | 0.00 | 1 | 1011.9 |
| 20260505061303 | 11 | 53 | 6.4 | 16.1 | 0.00 | 0.00 | 0.00 | 1 | 1012.1 |
| 20260505060314 | 11 | 26 | 4.8 | 14.5 | 0.00 | 0.00 | 0.00 | 1 | 1012.2 |
| 20260505055242 | 10 | 54 | 6.4 | 12.9 | 0.00 | 0.00 | 0.00 | 1 | 1012.2 |
| 20260505054258 | 10 | 32 | 3.2 | 12.9 | 0.00 | 0.00 | 0.00 | 1 | 1012.2 |
| 20260505053307 | 10 | 49 | 3.2 | 11.3 | 0.00 | 0.00 | 0.00 | 1 | 1012.2 |
| 20260505052327 | 10 | 52 | 3.2 | 9.7 | 0.00 | 0.00 | 0.00 | 1 | 1012.2 |
| 20260505051259 | 10 | 60 | 3.2 | 11.3 | 0.00 | 0.00 | 0.00 | 1 | 1012.2 |
| 20260505050247 | 10 | 49 | 4.8 | 12.9 | 0.00 | 0.00 | 0.00 | 1 | 1012.2 |
| 20260505041000 | 10 | 71 | 4.8 | 16.1 | 0.00 | 0.00 | 0.00 | 1 | 1012.1 |
| 20260505040015 | 10 | 47 | 4.8 | 16.1 | 0.00 | 0.00 | 0.00 | 1 | 1012.2 |
| 20260505035014 | 10 | 71 | 4.8 | 12.9 | 0.00 | 0.00 | 0.00 | 1 | 1012.2 |
| 20260505032841 | 10 | 17 | 3.2 | 8.0 | 0.00 | 0.00 | 0.00 | 1 | 1012.2 |
| 20260505030716 | 11 | 44 | 6.4 | 16.1 | 0.00 | 0.00 | 0.00 | 1 | 1012.5 |
| 20260505023445 | 11 | 34 | 6.4 | 16.1 | 0.00 | 0.00 | 0.00 | 1 | 1012.8 |
| 20260505022434 | 11 | 9 | 8.0 | 16.1 | 0.00 | 0.00 | 0.00 | 1 | 1012.8 |
| 20260505021422 | 11 | 60 | 8.0 | 16.1 | 0.00 | 0.00 | 0.00 | 1 | 1012.8 |
| 20260505020431 | 11 | 50 | 6.4 | 16.1 | 0.00 | 0.00 | 0.00 | 1 | 1012.8 |
| 20260505015429 | 11 | 31 | 6.4 | 14.5 | 0.00 | 0.00 | 0.00 | 1 | 1012.8 |
| 20260505014356 | 11 | 38 | 8.0 | 17.7 | 0.00 | 0.00 | 0.00 | 1 | 1012.7 |
| 20260505013358 | 11 | 17 | 8.0 | 17.7 | 0.00 | 0.00 | 0.00 | 1 | 1012.8 |
| 20260505010126 | 11 | 60 | 4.8 | 17.7 | 0.00 | 0.00 | 0.00 | 1 | 1013.2 |